Погода в Рождествено

Россия / Калужская область     54°27′55″N   36°10′59″E
темп.,
°C
ветер,
м/с
пор.,
м/с
влажн.,
%
обл.,
%
осадки,
мм/ч
давл.,
гПа
погр.,
м
26 июля, пн
пн2600:00+17юв2261100 0.0 102226
03:00+17ююв1158100 0.0 102312
06:00+17юв1261100 0.0 102325
09:00+19ю1259100 0.0 1023231
12:00+23ююз345420 0.0 1023537
15:00+27зюз343787 0.0 10222602
18:00+24з125151 0.0 1022307
21:00+20ю227017 0.0 102234
27 июля, вт
вт2700:00+17юз118017 0.0 102314
03:00+18з117683 0.1 102314
06:00+17зюз228520 0.5 102335
09:00+22юз22664 0.6 1022380
12:00+27юз33445 0.0 10211845
15:00+27зюз234474 0.0 10201417
18:00+23ссв356074 0.1 1019184
21:00+18юв228671 1.8 101926
28 июля, ср
ср2800:00+17ююв239074 0.9 101951
03:00+15ююз239119 1.4 101847
06:00+16ююз2488100 0.0 1017105
09:00+19ююв2483100 0.0 1016157
12:00+20зюз1380100 0.2 1016201
15:00+17юв41195100 3.8 1013412
18:00+20ю41083100 0.1 1011742
21:00+19ю378798 0.3 1009236
29 июля, чт
чт2900:00+18юз399874 0.1 1009297
03:00+17з411964 0.1 1008336
06:00+17з311930 0.0 1009333
09:00+23з59670 0.0 1008703
12:00+27зсз6946100 0.0 10081780
15:00+28зсз683937 0.0 10082412
18:00+26зсз59435 0.0 10081919
21:00+20зюз37694 0.0 1009114
30 июля, пт
пт3000:00+17з35780 0.0 101085
03:00+16з22813 0.0 101012
06:00+17зюз22781 0.0 101148
09:00+24зюз34555 0.0 1011528
12:00+28зюз464412 0.0 10111593
15:00+28зюз4646100 0.0 10101362
18:00+21сз348087 0.4 100969
21:00+19вюв239593 1.6 100956